Location: *
(46.0770°N, 1.6444°E)
Time: 22:51:19
(UTC+00:00)

Meteor 1-12 Rocket - Pass Details

Date: 16 September 2019
Orbit: 854 x 927 km, 81.2° (Epoch: 13 October)

Event Time Altitude Azimuth Distance (km) Brightness Sun altitude
Rises 18:58:56 0° 181° (S) 3,475 7.3 -10.3°
Reaches altitude 10° 19:01:24 10° 179° (S) 2,529 6.5 -10.7°
Maximum altitude 19:07:06 70° 97° (E) 925 4.2 -11.6°
Drops below altitude 10° 19:12:45 10° 15° (NNE) 2,508 6.7 -12.6°
Sets 19:15:11 0° 14° (NNE) 3,444 7.4 -13.0°
